Time,TemperatureF,DewpointF,PressureIn,WindDirection,WindDirectionDegrees,WindSpeedMPH,WindSpeedGustMPH,Humidity,HourlyPrecipIn,Conditions,Clouds,dailyrainin,SoftwareType,DateUTC
2013-09-22 00:01:00,60.6,59.5,30.12,SW,229,9.0,11.0,96,0.00,,,0.00,WeatherCatV1.21B27,2013-09-21 23:01:00,
2013-09-22 00:06:00,60.6,59.5,30.12,SSW,205,5.0,15.0,96,0.00,,,0.00,WeatherCatV1.21B27,2013-09-21 23:06:00,
2013-09-22 00:11:00,60.6,59.7,30.12,SW,228,10.0,11.0,97,0.00,,,0.00,WeatherCatV1.21B27,2013-09-21 23:11:00,
2013-09-22 00:16:00,60.5,59.3,30.12,SW,222,11.0,15.0,96,0.00,,,0.00,WeatherCatV1.21B27,2013-09-21 23:16:00,
2013-09-22 00:21:00,60.6,59.5,30.12,WSW,245,6.0,13.0,96,0.00,,,0.00,WeatherCatV1.21B27,2013-09-21 23:21:00,
2013-09-22 00:26:00,60.5,59.3,30.12,South,179,8.0,8.0,96,0.00,,,0.00,WeatherCatV1.21B27,2013-09-21 23:26:00,
2013-09-22 00:31:00,60.5,59.6,30.12,SW,229,16.0,16.0,97,0.00,,,0.00,WeatherCatV1.21B27,2013-09-21 23:31:00,
2013-09-22 00:36:00,60.4,59.5,30.12,WSW,257,9.0,17.0,97,0.00,,,0.00,WeatherCatV1.21B27,2013-09-21 23:36:00,
2013-09-22 00:41:00,60.4,59.2,30.12,WSW,241,9.0,17.0,96,0.00,,,0.00,WeatherCatV1.21B27,2013-09-21 23:41:00,
2013-09-22 00:46:00,60.3,59.2,30.12,WSW,250,8.0,14.0,96,0.00,,,0.00,WeatherCatV1.21B27,2013-09-21 23:46:00,
2013-09-22 00:51:00,60.3,59.2,30.12,SW,215,8.0,13.0,96,0.00,,,0.00,WeatherCatV1.21B27,2013-09-21 23:51:00,
2013-09-22 00:56:00,60.2,59.0,30.12,SSW,200,8.0,11.0,96,0.00,,,0.00,WeatherCatV1.21B27,2013-09-21 23:56:00,
2013-09-22 01:01:00,60.2,59.3,30.12,SW,219,12.0,13.0,97,0.00,,,0.00,WeatherCatV1.21B27,2013-09-22 00:01:00,
2013-09-22 01:06:00,60.1,59.2,30.13,WSW,250,11.0,12.0,97,0.00,,,0.00,WeatherCatV1.21B27,2013-09-22 00:06:00,
2013-09-22 01:11:00,60.2,59.3,30.13,SSW,208,8.0,10.0,97,0.00,,,0.00,WeatherCatV1.21B27,2013-09-22 00:11:00,
2013-09-22 01:16:00,60.1,59.2,30.12,South,186,3.0,10.0,97,0.00,,,0.00,WeatherCatV1.21B27,2013-09-22 00:16:00,
2013-09-22 01:21:00,60.1,59.2,30.12,SSE,147,9.0,10.0,97,0.00,,,0.00,WeatherCatV1.21B27,2013-09-22 00:21:00,
2013-09-22 01:26:00,60.1,59.2,30.12,SW,229,9.0,11.0,97,0.00,,,0.00,WeatherCatV1.21B27,2013-09-22 00:26:00,
2013-09-22 01:31:00,60.0,59.1,30.12,SW,233,11.0,14.0,97,0.00,,,0.00,WeatherCatV1.21B27,2013-09-22 00:31:00,
2013-09-22 01:36:00,60.0,59.1,30.12,SSW,213,9.0,9.0,97,0.00,,,0.00,WeatherCatV1.21B27,2013-09-22 00:36:00,
2013-09-22 01:41:00,60.1,59.2,30.12,SW,219,10.0,11.0,97,0.00,,,0.00,WeatherCatV1.21B27,2013-09-22 00:41:00,
2013-09-22 01:46:00,60.1,59.2,30.12,South,173,8.0,10.0,97,0.00,,,0.00,WeatherCatV1.21B27,2013-09-22 00:46:00,
2013-09-22 01:51:00,60.1,59.2,30.12,SW,228,11.0,12.0,97,0.00,,,0.00,WeatherCatV1.21B27,2013-09-22 00:51:00,
2013-09-22 01:56:00,60.1,59.2,30.12,SW,233,8.0,12.0,97,0.00,,,0.00,WeatherCatV1.21B27,2013-09-22 00:56:00,
2013-09-22 02:01:00,60.1,59.2,30.12,SE,146,5.0,11.0,97,0.00,,,0.00,WeatherCatV1.21B27,2013-09-22 01:01:00,
2013-09-22 02:06:00,60.2,59.3,30.12,SSW,194,11.0,13.0,97,0.00,,,0.00,WeatherCatV1.21B27,2013-09-22 01:06:00,
2013-09-22 02:11:00,60.3,59.4,30.13,SSW,208,6.0,11.0,97,0.00,,,0.00,WeatherCatV1.21B27,2013-09-22 01:11:00,
2013-09-22 02:16:00,60.3,59.4,30.13,SSW,201,6.0,10.0,97,0.00,,,0.00,WeatherCatV1.21B27,2013-09-22 01:16:00,
2013-09-22 02:21:00,60.3,59.4,30.13,SSW,198,7.0,10.0,97,0.00,,,0.00,WeatherCatV1.21B27,2013-09-22 01:21:00,
2013-09-22 02:26:00,60.3,59.4,30.13,SSW,210,7.0,9.0,97,0.00,,,0.00,WeatherCatV1.21B27,2013-09-22 01:26:00,
2013-09-22 02:31:00,60.3,59.4,30.13,SW,219,9.0,9.0,97,0.00,,,0.00,WeatherCatV1.21B27,2013-09-22 01:31:00,
2013-09-22 02:36:00,60.3,59.4,30.13,SSW,203,5.0,11.0,97,0.00,,,0.00,WeatherCatV1.21B27,2013-09-22 01:36:00,
2013-09-22 02:41:00,60.4,59.5,30.13,SSW,200,8.0,8.0,97,0.00,,,0.00,WeatherCatV1.21B27,2013-09-22 01:41:00,
2013-09-22 02:46:00,60.4,59.8,30.13,SW,217,5.0,10.0,98,0.00,,,0.00,WeatherCatV1.21B27,2013-09-22 01:46:00,
2013-09-22 02:51:00,60.4,59.8,30.13,SSE,153,5.0,9.0,98,0.00,,,0.00,WeatherCatV1.21B27,2013-09-22 01:51:00,
2013-09-22 02:56:00,60.4,59.8,30.13,South,181,6.0,9.0,98,0.00,,,0.00,WeatherCatV1.21B27,2013-09-22 01:56:00,
2013-09-22 03:01:00,60.4,59.8,30.13,SSW,198,10.0,11.0,98,0.00,,,0.00,WeatherCatV1.21B27,2013-09-22 02:01:00,
2013-09-22 03:06:00,60.4,59.8,30.13,West,274,8.0,11.0,98,0.00,,,0.00,WeatherCatV1.21B27,2013-09-22 02:06:00,
2013-09-22 03:11:00,60.3,59.7,30.13,SSW,201,5.0,13.0,98,0.00,,,0.00,WeatherCatV1.21B27,2013-09-22 02:11:00,
2013-09-22 03:16:00,60.3,59.7,30.13,SW,236,13.0,13.0,98,0.00,,,0.00,WeatherCatV1.21B27,2013-09-22 02:16:00,
2013-09-22 03:21:00,60.3,59.7,30.13,SSW,197,5.0,14.0,98,0.00,,,0.00,WeatherCatV1.21B27,2013-09-22 02:21:00,
2013-09-22 03:26:00,60.3,59.7,30.13,South,190,5.0,14.0,98,0.00,,,0.00,WeatherCatV1.21B27,2013-09-22 02:26:00,
2013-09-22 03:31:00,60.2,59.6,30.13,SW,222,10.0,13.0,98,0.00,,,0.00,WeatherCatV1.21B27,2013-09-22 02:31:00,
2013-09-22 03:36:00,60.1,59.5,30.13,SSE,153,11.0,11.0,98,0.00,,,0.00,WeatherCatV1.21B27,2013-09-22 02:36:00,
2013-09-22 03:41:00,60.1,59.5,30.13,SSW,210,6.0,12.0,98,0.00,,,0.00,WeatherCatV1.21B27,2013-09-22 02:41:00,
2013-09-22 03:46:00,60.1,59.5,30.13,SSW,205,8.0,12.0,98,0.00,,,0.00,WeatherCatV1.21B27,2013-09-22 02:46:00,
2013-09-22 03:51:00,60.1,59.5,30.13,SSW,213,7.0,12.0,98,0.00,,,0.00,WeatherCatV1.21B27,2013-09-22 02:51:00,
2013-09-22 03:56:00,60.1,59.5,30.13,SSW,193,7.0,11.0,98,0.00,,,0.00,WeatherCatV1.21B27,2013-09-22 02:56:00,
2013-09-22 04:01:00,60.1,59.5,30.13,SW,228,9.0,14.0,98,0.00,,,0.00,WeatherCatV1.21B27,2013-09-22 03:01:00,
2013-09-22 04:06:00,60.0,59.4,30.12,SW,217,8.0,13.0,98,0.00,,,0.00,WeatherCatV1.21B27,2013-09-22 03:06:00,
2013-09-22 04:11:00,60.0,59.4,30.12,SSW,201,10.0,12.0,98,0.00,,,0.00,WeatherCatV1.21B27,2013-09-22 03:11:00,
2013-09-22 04:16:00,60.1,59.5,30.12,SW,222,10.0,12.0,98,0.00,,,0.00,WeatherCatV1.21B27,2013-09-22 03:16:00,
2013-09-22 04:21:00,60.1,59.5,30.12,SW,225,7.0,12.0,98,0.00,,,0.00,WeatherCatV1.21B27,2013-09-22 03:21:00,
2013-09-22 04:26:00,60.1,59.5,30.12,SW,221,8.0,10.0,98,0.00,,,0.00,WeatherCatV1.21B27,2013-09-22 03:26:00,
2013-09-22 04:31:00,60.1,59.5,30.12,SW,218,7.0,9.0,98,0.00,,,0.00,WeatherCatV1.21B27,2013-09-22 03:31:00,
2013-09-22 04:36:00,60.1,59.5,30.13,SSW,205,5.0,11.0,98,0.00,,,0.00,WeatherCatV1.21B27,2013-09-22 03:36:00,
2013-09-22 04:41:00,60.1,59.5,30.13,SW,226,9.0,12.0,98,0.00,,,0.00,WeatherCatV1.21B27,2013-09-22 03:41:00,
2013-09-22 04:46:00,60.1,59.5,30.13,SSW,202,6.0,10.0,98,0.00,,,0.00,WeatherCatV1.21B27,2013-09-22 03:46:00,
2013-09-22 04:51:00,60.1,59.5,30.12,SSW,194,7.0,13.0,98,0.00,,,0.00,WeatherCatV1.21B27,2013-09-22 03:51:00,
2013-09-22 04:56:00,60.1,59.5,30.12,SSW,205,8.0,16.0,98,0.00,,,0.00,WeatherCatV1.21B27,2013-09-22 03:56:00,
2013-09-22 05:01:00,60.2,59.6,30.12,SW,236,11.0,13.0,98,0.00,,,0.00,WeatherCatV1.21B27,2013-09-22 04:01:00,
2013-09-22 05:06:00,60.2,59.6,30.12,WSW,255,10.0,13.0,98,0.00,,,0.00,WeatherCatV1.21B27,2013-09-22 04:06:00,
2013-09-22 05:12:00,60.1,59.5,30.12,SSW,213,9.0,13.0,98,0.00,,,0.00,WeatherCatV1.21B27,2013-09-22 04:12:00,
2013-09-22 05:16:00,60.1,59.5,30.12,SSW,198,9.0,13.0,98,0.00,,,0.00,WeatherCatV1.21B27,2013-09-22 04:16:00,
2013-09-22 05:22:00,60.1,59.5,30.12,SW,222,8.0,12.0,98,0.00,,,0.00,WeatherCatV1.21B27,2013-09-22 04:22:00,
2013-09-22 05:26:00,60.0,59.4,30.12,SW,226,10.0,11.0,98,0.00,,,0.00,WeatherCatV1.21B27,2013-09-22 04:26:00,
2013-09-22 05:31:00,60.1,59.5,30.12,South,181,7.0,11.0,98,0.00,,,0.00,WeatherCatV1.21B27,2013-09-22 04:31:00,
2013-09-22 05:36:00,60.0,59.4,30.12,SW,219,11.0,11.0,98,0.00,,,0.00,WeatherCatV1.21B27,2013-09-22 04:36:00,
2013-09-22 05:41:00,60.1,59.5,30.12,SW,222,7.0,10.0,98,0.00,,,0.00,WeatherCatV1.21B27,2013-09-22 04:41:00,
2013-09-22 05:46:00,60.1,59.5,30.12,SSW,200,8.0,14.0,98,0.00,,,0.00,WeatherCatV1.21B27,2013-09-22 04:46:00,
2013-09-22 05:51:00,60.2,59.6,30.12,SSW,193,9.0,9.0,98,0.00,,,0.00,WeatherCatV1.21B27,2013-09-22 04:51:00,
2013-09-22 05:56:00,60.2,59.6,30.12,South,172,6.0,10.0,98,0.00,,,0.00,WeatherCatV1.21B27,2013-09-22 04:56:00,
2013-09-22 06:01:00,60.1,59.5,30.13,SSW,212,10.0,12.0,98,0.00,,,0.00,WeatherCatV1.21B27,2013-09-22 05:01:00,
2013-09-22 06:06:00,60.1,59.5,30.12,WSW,243,7.0,13.0,98,0.00,,,0.00,WeatherCatV1.21B27,2013-09-22 05:06:00,
2013-09-22 06:11:00,60.0,59.4,30.13,SW,221,10.0,13.0,98,0.00,,,0.00,WeatherCatV1.21B27,2013-09-22 05:11:00,
2013-09-22 06:16:00,60.0,59.4,30.12,SSW,205,7.0,9.0,98,0.00,,,0.00,WeatherCatV1.21B27,2013-09-22 05:16:00,
2013-09-22 06:21:00,60.0,59.4,30.13,South,172,3.0,9.0,98,0.00,,,0.00,WeatherCatV1.21B27,2013-09-22 05:21:00,
2013-09-22 06:26:00,59.9,59.3,30.13,South,190,4.0,8.0,98,0.00,,,0.00,WeatherCatV1.21B27,2013-09-22 05:26:00,
2013-09-22 06:31:00,59.9,59.3,30.13,South,186,4.0,7.0,98,0.00,,,0.00,WeatherCatV1.21B27,2013-09-22 05:31:00,
2013-09-22 06:36:00,59.9,59.3,30.13,SSW,205,6.0,9.0,98,0.00,,,0.00,WeatherCatV1.21B27,2013-09-22 05:36:00,
2013-09-22 06:41:00,59.9,59.3,30.13,South,183,3.0,5.0,98,0.00,,,0.00,WeatherCatV1.21B27,2013-09-22 05:41:00,
2013-09-22 06:46:00,60.0,59.4,30.14,SSW,205,6.0,7.0,98,0.00,,,0.00,WeatherCatV1.21B27,2013-09-22 05:46:00,
2013-09-22 06:51:00,59.9,59.3,30.14,SSW,198,5.0,7.0,98,0.00,,,0.00,WeatherCatV1.21B27,2013-09-22 05:51:00,
2013-09-22 06:56:00,59.9,59.3,30.14,SW,215,4.0,7.0,98,0.00,,,0.00,WeatherCatV1.21B27,2013-09-22 05:56:00,
2013-09-22 07:01:00,59.9,59.3,30.14,SSW,198,3.0,4.0,98,0.00,,,0.00,WeatherCatV1.21B27,2013-09-22 06:01:00,
2013-09-22 07:06:00,59.9,59.3,30.14,SSW,201,2.0,3.0,98,0.00,,,0.00,WeatherCatV1.21B27,2013-09-22 06:06:00,
2013-09-22 07:11:00,59.9,59.3,30.14,SSW,207,4.0,6.0,98,0.00,,,0.00,WeatherCatV1.21B27,2013-09-22 06:11:00,
2013-09-22 07:16:00,59.9,59.3,30.14,SSW,195,3.0,4.0,98,0.00,,,0.00,WeatherCatV1.21B27,2013-09-22 06:16:00,
2013-09-22 07:21:00,60.0,59.4,30.14,SSW,203,2.0,5.0,98,0.00,,,0.00,WeatherCatV1.21B27,2013-09-22 06:21:00,
2013-09-22 07:26:00,59.9,59.3,30.14,SSE,166,3.0,4.0,98,0.00,,,0.00,WeatherCatV1.21B27,2013-09-22 06:26:00,
2013-09-22 07:31:00,59.9,59.3,30.15,South,189,2.0,3.0,98,0.00,,,0.00,WeatherCatV1.21B27,2013-09-22 06:31:00,
2013-09-22 07:36:00,59.8,59.2,30.15,SE,136,2.0,3.0,98,0.00,,,0.00,WeatherCatV1.21B27,2013-09-22 06:36:00,
2013-09-22 07:41:00,59.7,59.1,30.15,South,184,1.0,3.0,98,0.00,,,0.00,WeatherCatV1.21B27,2013-09-22 06:41:00,
2013-09-22 07:46:00,59.7,59.1,30.15,SE,136,2.0,4.0,98,0.00,,,0.00,WeatherCatV1.21B27,2013-09-22 06:46:00,
2013-09-22 07:51:00,59.4,58.8,30.15,SSE,167,3.0,4.0,98,0.00,,,0.00,WeatherCatV1.21B27,2013-09-22 06:51:00,
2013-09-22 07:56:00,59.2,58.6,30.15,SE,131,4.0,4.0,98,0.00,,,0.00,WeatherCatV1.21B27,2013-09-22 06:56:00,
2013-09-22 08:01:00,59.1,58.5,30.15,SE,146,2.0,4.0,98,0.00,,,0.00,WeatherCatV1.21B27,2013-09-22 07:01:00,
2013-09-22 08:06:00,59.1,58.5,30.15,ESE,122,2.0,3.0,98,0.00,,,0.00,WeatherCatV1.21B27,2013-09-22 07:06:00,
2013-09-22 08:11:00,59.1,58.5,30.16,SE,139,2.0,4.0,98,0.00,,,0.00,WeatherCatV1.21B27,2013-09-22 07:11:00,
2013-09-22 08:16:00,59.1,58.5,30.16,SE,145,2.0,4.0,98,0.00,,,0.00,WeatherCatV1.21B27,2013-09-22 07:16:00,
2013-09-22 08:21:00,59.1,58.5,30.16,SSE,149,5.0,5.0,98,0.00,,,0.00,WeatherCatV1.21B27,2013-09-22 07:21:00,
2013-09-22 08:26:00,59.2,58.6,30.16,South,170,5.0,5.0,98,0.00,,,0.00,WeatherCatV1.21B27,2013-09-22 07:26:00,
2013-09-22 08:31:00,59.3,58.7,30.16,SSE,148,6.0,7.0,98,0.00,,,0.00,WeatherCatV1.21B27,2013-09-22 07:31:00,
2013-09-22 08:36:00,59.4,58.8,30.16,SSE,159,5.0,6.0,98,0.00,,,0.00,WeatherCatV1.21B27,2013-09-22 07:36:00,
2013-09-22 08:41:00,59.5,58.9,30.16,SSE,149,4.0,4.0,98,0.00,,,0.00,WeatherCatV1.21B27,2013-09-22 07:41:00,
2013-09-22 08:46:00,59.5,58.9,30.16,SE,136,4.0,8.0,98,0.00,,,0.00,WeatherCatV1.21B27,2013-09-22 07:46:00,
2013-09-22 08:51:00,59.6,58.8,30.16,South,169,3.0,5.0,97,0.00,,,0.00,WeatherCatV1.21B27,2013-09-22 07:51:00,
2013-09-22 08:56:00,59.6,58.8,30.16,SSE,153,3.0,6.0,97,0.00,,,0.00,WeatherCatV1.21B27,2013-09-22 07:56:00,
2013-09-22 09:01:00,59.6,58.8,30.16,ESE,118,3.0,6.0,97,0.00,,,0.00,WeatherCatV1.21B27,2013-09-22 08:01:00,
2013-09-22 09:06:00,59.7,58.8,30.16,South,181,4.0,6.0,97,0.00,,,0.00,WeatherCatV1.21B27,2013-09-22 08:06:00,
2013-09-22 09:11:00,59.7,58.8,30.16,ESE,116,5.0,7.0,97,0.00,,,0.00,WeatherCatV1.21B27,2013-09-22 08:11:00,
2013-09-22 09:16:00,59.9,59.0,30.16,SE,135,2.0,5.0,97,0.00,,,0.00,WeatherCatV1.21B27,2013-09-22 08:16:00,
2013-09-22 09:21:00,60.2,59.3,30.17,SSE,149,4.0,5.0,97,0.00,,,0.00,WeatherCatV1.21B27,2013-09-22 08:21:00,
2013-09-22 09:26:00,60.6,59.5,30.17,SE,141,6.0,6.0,96,0.00,,,0.00,WeatherCatV1.21B27,2013-09-22 08:26:00,
2013-09-22 09:31:00,60.9,59.5,30.16,SSE,162,5.0,7.0,95,0.00,,,0.00,WeatherCatV1.21B27,2013-09-22 08:31:00,
2013-09-22 09:36:00,61.1,59.7,30.16,South,169,6.0,10.0,95,0.00,,,0.00,WeatherCatV1.21B27,2013-09-22 08:36:00,
2013-09-22 09:41:00,61.0,59.3,30.16,South,181,5.0,6.0,94,0.00,,,0.00,WeatherCatV1.21B27,2013-09-22 08:41:00,
2013-09-22 09:46:00,60.7,59.0,30.17,SSE,159,3.0,6.0,94,0.00,,,0.00,WeatherCatV1.21B27,2013-09-22 08:46:00,
2013-09-22 09:51:00,60.8,59.1,30.17,SE,137,2.0,4.0,94,0.00,,,0.00,WeatherCatV1.21B27,2013-09-22 08:51:00,
2013-09-22 09:56:00,61.2,59.5,30.17,SSE,163,5.0,5.0,94,0.00,,,0.00,WeatherCatV1.21B27,2013-09-22 08:56:00,
2013-09-22 10:01:00,61.3,59.6,30.17,SSW,195,4.0,6.0,94,0.00,,,0.00,WeatherCatV1.21B27,2013-09-22 09:01:00,
2013-09-22 10:06:00,61.6,59.8,30.17,SSW,194,5.0,7.0,94,0.00,,,0.00,WeatherCatV1.21B27,2013-09-22 09:06:00,
2013-09-22 10:11:00,62.0,60.2,30.17,South,186,4.0,6.0,94,0.00,,,0.00,WeatherCatV1.21B27,2013-09-22 09:11:00,
2013-09-22 10:16:00,62.2,60.2,30.17,SSE,156,4.0,4.0,93,0.00,,,0.00,WeatherCatV1.21B27,2013-09-22 09:16:00,
2013-09-22 10:21:00,62.6,60.2,30.17,SE,140,5.0,7.0,92,0.00,,,0.00,WeatherCatV1.21B27,2013-09-22 09:21:00,
2013-09-22 10:26:00,62.6,59.9,30.17,SSE,160,6.0,7.0,91,0.00,,,0.00,WeatherCatV1.21B27,2013-09-22 09:26:00,
2013-09-22 10:31:00,62.8,60.1,30.17,South,169,7.0,7.0,91,0.00,,,0.00,WeatherCatV1.21B27,2013-09-22 09:31:00,
2013-09-22 10:36:00,63.1,60.4,30.17,SSE,151,4.0,6.0,91,0.00,,,0.00,WeatherCatV1.21B27,2013-09-22 09:36:00,
2013-09-22 10:41:00,63.4,60.4,30.17,SE,141,4.0,6.0,90,0.00,,,0.00,WeatherCatV1.21B27,2013-09-22 09:41:00,
2013-09-22 10:46:00,63.6,60.6,30.17,SSE,158,5.0,6.0,90,0.00,,,0.00,WeatherCatV1.21B27,2013-09-22 09:46:00,
2013-09-22 10:51:00,63.7,60.4,30.17,South,180,4.0,6.0,89,0.00,,,0.00,WeatherCatV1.21B27,2013-09-22 09:51:00,
2013-09-22 10:56:00,64.1,60.8,30.17,SSE,147,3.0,7.0,89,0.00,,,0.00,WeatherCatV1.21B27,2013-09-22 09:56:00,
2013-09-22 11:01:00,64.4,60.4,30.17,SE,134,5.0,7.0,87,0.00,,,0.00,WeatherCatV1.21B27,2013-09-22 10:01:00,
2013-09-22 11:06:00,64.5,60.5,30.17,SE,130,4.0,8.0,87,0.00,,,0.00,WeatherCatV1.21B27,2013-09-22 10:06:00,
2013-09-22 11:11:00,64.4,60.4,30.18,ESE,122,4.0,9.0,87,0.00,,,0.00,WeatherCatV1.21B27,2013-09-22 10:11:00,
2013-09-22 11:16:00,64.7,60.7,30.17,SSE,162,2.0,5.0,87,0.00,,,0.00,WeatherCatV1.21B27,2013-09-22 10:16:00,
2013-09-22 11:21:00,64.8,60.5,30.18,SE,141,4.0,9.0,86,0.00,,,0.00,WeatherCatV1.21B27,2013-09-22 10:21:00,
2013-09-22 11:26:00,65.1,60.5,30.18,SE,125,4.0,7.0,85,0.00,,,0.00,WeatherCatV1.21B27,2013-09-22 10:26:00,
2013-09-22 11:31:00,65.4,60.8,30.18,ESE,122,4.0,11.0,85,0.00,,,0.00,WeatherCatV1.21B27,2013-09-22 10:31:00,
2013-09-22 11:36:00,65.3,60.7,30.18,ESE,121,6.0,9.0,85,0.00,,,0.00,WeatherCatV1.21B27,2013-09-22 10:36:00,
2013-09-22 11:41:00,65.8,60.8,30.18,SE,143,5.0,9.0,84,0.00,,,0.00,WeatherCatV1.21B27,2013-09-22 10:41:00,
2013-09-22 11:46:00,66.0,61.0,30.18,SSE,151,3.0,5.0,84,0.00,,,0.00,WeatherCatV1.21B27,2013-09-22 10:46:00,
2013-09-22 11:51:00,66.2,60.9,30.18,SSE,158,3.0,9.0,83,0.00,,,0.00,WeatherCatV1.21B27,2013-09-22 10:51:00,
2013-09-22 11:57:00,66.1,60.8,30.18,South,176,6.0,8.0,83,0.00,,,0.00,WeatherCatV1.21B27,2013-09-22 10:57:00,
2013-09-22 12:02:00,66.3,60.6,30.17,SE,126,4.0,8.0,82,0.00,,,0.00,WeatherCatV1.21B27,2013-09-22 11:02:00,
2013-09-22 12:07:00,66.4,60.4,30.18,SE,125,4.0,9.0,81,0.00,,,0.00,WeatherCatV1.21B27,2013-09-22 11:07:00,
2013-09-22 12:12:00,66.8,61.1,30.17,SSE,165,6.0,7.0,82,0.00,,,0.00,WeatherCatV1.21B27,2013-09-22 11:12:00,
2013-09-22 12:17:00,66.9,60.5,30.17,SE,134,6.0,8.0,80,0.00,,,0.00,WeatherCatV1.21B27,2013-09-22 11:17:00,
2013-09-22 12:22:00,67.0,61.0,30.17,SE,139,5.0,7.0,81,0.00,,,0.00,WeatherCatV1.21B27,2013-09-22 11:22:00,
2013-09-22 12:27:00,67.5,61.8,30.17,ESE,108,3.0,6.0,82,0.00,,,0.00,WeatherCatV1.21B27,2013-09-22 11:27:00,
2013-09-22 12:32:00,67.3,60.5,30.17,SSE,147,4.0,9.0,79,0.00,,,0.00,WeatherCatV1.21B27,2013-09-22 11:32:00,
2013-09-22 12:37:00,67.5,61.1,30.17,SSE,166,5.0,7.0,80,0.00,,,0.00,WeatherCatV1.21B27,2013-09-22 11:37:00,
2013-09-22 12:42:00,67.6,60.8,30.17,ESE,117,7.0,8.0,79,0.00,,,0.00,WeatherCatV1.21B27,2013-09-22 11:42:00,
2013-09-22 12:47:00,68.0,61.6,30.17,SE,135,5.0,6.0,80,0.00,,,0.00,WeatherCatV1.21B27,2013-09-22 11:47:00,
2013-09-22 12:52:00,68.3,61.2,30.17,SE,141,5.0,6.0,78,0.00,,,0.00,WeatherCatV1.21B27,2013-09-22 11:52:00,
2013-09-22 12:57:00,68.2,60.7,30.17,South,183,2.0,6.0,77,0.00,,,0.00,WeatherCatV1.21B27,2013-09-22 11:57:00,
2013-09-22 13:02:00,68.3,60.8,30.17,SSE,162,5.0,7.0,77,0.00,,,0.00,WeatherCatV1.21B27,2013-09-22 12:02:00,
2013-09-22 13:07:00,68.2,60.7,30.17,SE,136,4.0,7.0,77,0.00,,,0.00,WeatherCatV1.21B27,2013-09-22 12:07:00,
2013-09-22 13:12:00,68.6,61.1,30.17,SSE,148,5.0,6.0,77,0.00,,,0.00,WeatherCatV1.21B27,2013-09-22 12:12:00,
2013-09-22 13:17:00,69.0,61.1,30.17,SE,131,2.0,7.0,76,0.00,,,0.00,WeatherCatV1.21B27,2013-09-22 12:17:00,
2013-09-22 13:22:00,69.0,60.7,30.17,SSE,159,5.0,6.0,75,0.00,,,0.00,WeatherCatV1.21B27,2013-09-22 12:22:00,
2013-09-22 13:27:00,69.4,61.9,30.17,SE,125,5.0,7.0,77,0.00,,,0.00,WeatherCatV1.21B27,2013-09-22 12:27:00,
2013-09-22 13:32:00,69.3,61.4,30.17,SE,145,4.0,6.0,76,0.00,,,0.00,WeatherCatV1.21B27,2013-09-22 12:32:00,
2013-09-22 13:37:00,69.4,61.1,30.16,SSE,149,4.0,8.0,75,0.00,,,0.00,WeatherCatV1.21B27,2013-09-22 12:37:00,
2013-09-22 13:42:00,69.4,61.5,30.16,SSE,156,9.0,9.0,76,0.00,,,0.00,WeatherCatV1.21B27,2013-09-22 12:42:00,
2013-09-22 13:47:00,69.6,61.7,30.16,SE,127,4.0,8.0,76,0.00,,,0.00,WeatherCatV1.21B27,2013-09-22 12:47:00,
2013-09-22 13:52:00,69.9,62.0,30.16,SSE,156,4.0,7.0,76,0.00,,,0.00,WeatherCatV1.21B27,2013-09-22 12:52:00,
2013-09-22 13:57:00,69.4,61.1,30.16,ESE,105,4.0,8.0,75,0.00,,,0.00,WeatherCatV1.21B27,2013-09-22 12:57:00,
2013-09-22 14:02:00,69.3,61.8,30.16,SSE,148,6.0,8.0,77,0.00,,,0.00,WeatherCatV1.21B27,2013-09-22 13:02:00,
2013-09-22 14:07:00,69.2,61.3,30.16,SE,146,6.0,10.0,76,0.00,,,0.00,WeatherCatV1.21B27,2013-09-22 13:07:00,
2013-09-22 14:12:00,69.2,61.7,30.16,SE,127,4.0,8.0,77,0.00,,,0.00,WeatherCatV1.21B27,2013-09-22 13:12:00,
2013-09-22 14:17:00,69.2,61.3,30.16,SE,129,6.0,8.0,76,0.00,,,0.00,WeatherCatV1.21B27,2013-09-22 13:17:00,
2013-09-22 14:22:00,69.2,61.3,30.16,ESE,116,9.0,10.0,76,0.00,,,0.00,WeatherCatV1.21B27,2013-09-22 13:22:00,
2013-09-22 14:27:00,69.8,61.9,30.16,SE,124,5.0,10.0,76,0.00,,,0.00,WeatherCatV1.21B27,2013-09-22 13:27:00,
2013-09-22 14:32:00,70.1,61.4,30.15,SE,137,4.0,11.0,74,0.00,,,0.00,WeatherCatV1.21B27,2013-09-22 13:32:00,
2013-09-22 14:37:00,70.3,61.6,30.15,SSE,160,7.0,10.0,74,0.00,,,0.00,WeatherCatV1.21B27,2013-09-22 13:37:00,
2013-09-22 14:42:00,70.3,61.6,30.15,ESE,119,4.0,8.0,74,0.00,,,0.00,WeatherCatV1.21B27,2013-09-22 13:42:00,
2013-09-22 14:47:00,70.7,62.4,30.15,SE,139,6.0,7.0,75,0.00,,,0.00,WeatherCatV1.21B27,2013-09-22 13:47:00,
2013-09-22 14:52:00,70.1,61.4,30.15,SSE,153,6.0,9.0,74,0.00,,,0.00,WeatherCatV1.21B27,2013-09-22 13:52:00,
2013-09-22 14:57:00,69.8,61.5,30.15,South,169,10.0,11.0,75,0.00,,,0.00,WeatherCatV1.21B27,2013-09-22 13:57:00,
2013-09-22 15:02:00,70.1,61.0,30.15,SE,127,6.0,13.0,73,0.00,,,0.00,WeatherCatV1.21B27,2013-09-22 14:02:00,
2013-09-22 15:07:00,70.4,61.3,30.15,SSE,158,5.0,13.0,73,0.00,,,0.00,WeatherCatV1.21B27,2013-09-22 14:07:00,
2013-09-22 15:12:00,70.8,62.1,30.14,SE,141,6.0,8.0,74,0.00,,,0.00,WeatherCatV1.21B27,2013-09-22 14:12:00,
2013-09-22 15:17:00,70.9,61.8,30.14,SE,146,4.0,9.0,73,0.00,,,0.00,WeatherCatV1.21B27,2013-09-22 14:17:00,
2013-09-22 15:22:00,71.1,61.6,30.14,SSE,155,8.0,11.0,72,0.00,,,0.00,WeatherCatV1.21B27,2013-09-22 14:22:00,
2013-09-22 15:27:00,71.0,61.1,30.14,SE,135,7.0,15.0,71,0.00,,,0.00,WeatherCatV1.21B27,2013-09-22 14:27:00,
2013-09-22 15:32:00,70.8,61.3,30.14,SSE,150,8.0,15.0,72,0.00,,,0.00,WeatherCatV1.21B27,2013-09-22 14:32:00,
2013-09-22 15:37:00,70.8,61.3,30.14,SSE,148,6.0,12.0,72,0.00,,,0.00,WeatherCatV1.21B27,2013-09-22 14:37:00,
2013-09-22 15:42:00,70.9,61.4,30.14,ESE,117,8.0,11.0,72,0.00,,,0.00,WeatherCatV1.21B27,2013-09-22 14:42:00,
2013-09-22 15:47:00,71.1,61.6,30.14,South,188,4.0,9.0,72,0.00,,,0.00,WeatherCatV1.21B27,2013-09-22 14:47:00,
2013-09-22 15:52:00,70.7,61.2,30.14,SE,124,5.0,13.0,72,0.00,,,0.00,WeatherCatV1.21B27,2013-09-22 14:52:00,
2013-09-22 15:57:00,70.8,61.7,30.14,SSE,148,3.0,9.0,73,0.00,,,0.00,WeatherCatV1.21B27,2013-09-22 14:57:00,
2013-09-22 16:02:00,70.7,61.2,30.14,SE,139,6.0,9.0,72,0.00,,,0.00,WeatherCatV1.21B27,2013-09-22 15:02:00,
2013-09-22 16:07:00,70.8,61.7,30.14,SE,145,6.0,9.0,73,0.00,,,0.00,WeatherCatV1.21B27,2013-09-22 15:07:00,
2013-09-22 16:12:00,71.0,61.9,30.14,SE,135,8.0,8.0,73,0.00,,,0.00,WeatherCatV1.21B27,2013-09-22 15:12:00,
2013-09-22 16:17:00,70.4,61.3,30.14,South,172,7.0,8.0,73,0.00,,,0.00,WeatherCatV1.21B27,2013-09-22 15:17:00,
2013-09-22 16:22:00,69.8,60.7,30.13,SE,144,8.0,10.0,73,0.00,,,0.00,WeatherCatV1.21B27,2013-09-22 15:22:00,
2013-09-22 16:27:00,69.3,60.7,30.13,SE,146,15.0,15.0,74,0.00,,,0.00,WeatherCatV1.21B27,2013-09-22 15:27:00,
2013-09-22 16:32:00,69.0,60.4,30.13,South,172,6.0,15.0,74,0.00,,,0.00,WeatherCatV1.21B27,2013-09-22 15:32:00,
2013-09-22 16:37:00,69.4,60.7,30.13,SSE,159,9.0,10.0,74,0.00,,,0.00,WeatherCatV1.21B27,2013-09-22 15:37:00,
2013-09-22 16:42:00,69.3,60.3,30.13,ESE,121,8.0,13.0,73,0.00,,,0.00,WeatherCatV1.21B27,2013-09-22 15:42:00,
2013-09-22 16:47:00,69.0,60.4,30.13,SSE,154,6.0,10.0,74,0.00,,,0.00,WeatherCatV1.21B27,2013-09-22 15:47:00,
2013-09-22 16:52:00,69.0,60.7,30.13,South,176,7.0,15.0,75,0.00,,,0.00,WeatherCatV1.21B27,2013-09-22 15:52:00,
2013-09-22 16:57:00,69.0,60.7,30.13,South,170,12.0,12.0,75,0.00,,,0.00,WeatherCatV1.21B27,2013-09-22 15:57:00,
2013-09-22 17:02:00,69.2,60.9,30.13,SE,140,9.0,14.0,75,0.00,,,0.00,WeatherCatV1.21B27,2013-09-22 16:02:00,
2013-09-22 17:07:00,69.7,61.0,30.13,SSE,154,10.0,12.0,74,0.00,,,0.00,WeatherCatV1.21B27,2013-09-22 16:07:00,
2013-09-22 17:12:00,69.8,61.5,30.13,East,94,8.0,10.0,75,0.00,,,0.00,WeatherCatV1.21B27,2013-09-22 16:12:00,
2013-09-22 17:17:00,69.8,60.7,30.13,SE,134,5.0,11.0,73,0.00,,,0.00,WeatherCatV1.21B27,2013-09-22 16:17:00,
2013-09-22 17:22:00,69.4,60.7,30.13,SE,136,6.0,10.0,74,0.00,,,0.00,WeatherCatV1.21B27,2013-09-22 16:22:00,
2013-09-22 17:27:00,69.0,61.1,30.13,SE,136,4.0,9.0,76,0.00,,,0.00,WeatherCatV1.21B27,2013-09-22 16:27:00,
2013-09-22 17:32:00,68.7,60.8,30.13,SE,134,6.0,11.0,76,0.00,,,0.00,WeatherCatV1.21B27,2013-09-22 16:32:00,
2013-09-22 17:37:00,68.4,60.9,30.13,SSE,162,7.0,9.0,77,0.00,,,0.00,WeatherCatV1.21B27,2013-09-22 16:37:00,
2013-09-22 17:42:00,68.2,60.7,30.13,SSE,155,10.0,13.0,77,0.00,,,0.00,WeatherCatV1.21B27,2013-09-22 16:42:00,
2013-09-22 17:47:00,68.4,61.3,30.13,ESE,115,4.0,11.0,78,0.00,,,0.00,WeatherCatV1.21B27,2013-09-22 16:47:00,
2013-09-22 17:52:00,69.0,61.5,30.13,ESE,107,7.0,8.0,77,0.00,,,0.00,WeatherCatV1.21B27,2013-09-22 16:52:00,
2013-09-22 17:57:00,68.5,60.6,30.12,South,176,7.0,11.0,76,0.00,,,0.00,WeatherCatV1.21B27,2013-09-22 16:57:00,
2013-09-22 18:02:00,67.8,60.7,30.12,SE,145,8.0,9.0,78,0.00,,,0.00,WeatherCatV1.21B27,2013-09-22 17:02:00,
2013-09-22 18:07:00,67.5,60.8,30.12,East,89,5.0,13.0,79,0.00,,,0.00,WeatherCatV1.21B27,2013-09-22 17:07:00,
2013-09-22 18:12:00,67.2,60.5,30.12,SSE,147,6.0,11.0,79,0.00,,,0.00,WeatherCatV1.21B27,2013-09-22 17:12:00,
2013-09-22 18:17:00,67.3,60.9,30.12,SSE,154,12.0,13.0,80,0.00,,,0.00,WeatherCatV1.21B27,2013-09-22 17:17:00,
2013-09-22 18:22:00,67.2,60.8,30.12,SSE,162,11.0,12.0,80,0.00,,,0.00,WeatherCatV1.21B27,2013-09-22 17:22:00,
2013-09-22 18:27:00,67.1,60.7,30.12,SE,141,10.0,11.0,80,0.00,,,0.00,WeatherCatV1.21B27,2013-09-22 17:27:00,
2013-09-22 18:32:00,67.0,60.3,30.12,SE,130,7.0,10.0,79,0.00,,,0.00,WeatherCatV1.21B27,2013-09-22 17:32:00,
2013-09-22 18:37:00,66.9,60.2,30.12,SE,124,6.0,10.0,79,0.00,,,0.00,WeatherCatV1.21B27,2013-09-22 17:37:00,
2013-09-22 18:42:00,66.9,60.2,30.12,SSE,165,5.0,14.0,79,0.00,,,0.00,WeatherCatV1.21B27,2013-09-22 17:42:00,
2013-09-22 18:47:00,66.7,60.3,30.12,SSE,168,6.0,10.0,80,0.00,,,0.00,WeatherCatV1.21B27,2013-09-22 17:47:00,
2013-09-22 18:52:00,66.6,60.2,30.12,ENE,67,6.0,8.0,80,0.00,,,0.00,WeatherCatV1.21B27,2013-09-22 17:52:00,
2013-09-22 18:57:00,66.4,60.4,30.12,SE,128,2.0,9.0,81,0.00,,,0.00,WeatherCatV1.21B27,2013-09-22 17:57:00,
2013-09-22 19:02:00,66.4,60.4,30.12,SE,132,7.0,11.0,81,0.00,,,0.00,WeatherCatV1.21B27,2013-09-22 18:02:00,
2013-09-22 19:07:00,66.6,60.6,30.12,SE,145,6.0,11.0,81,0.00,,,0.00,WeatherCatV1.21B27,2013-09-22 18:07:00,
2013-09-22 19:12:00,66.3,60.3,30.12,ESE,114,5.0,10.0,81,0.00,,,0.00,WeatherCatV1.21B27,2013-09-22 18:12:00,
2013-09-22 19:17:00,65.9,60.2,30.11,East,86,4.0,7.0,82,0.00,,,0.00,WeatherCatV1.21B27,2013-09-22 18:17:00,
2013-09-22 19:22:00,65.5,60.2,30.11,SE,142,8.0,10.0,83,0.00,,,0.00,WeatherCatV1.21B27,2013-09-22 18:22:00,
2013-09-22 19:27:00,65.2,60.2,30.12,SE,128,5.0,9.0,84,0.00,,,0.00,WeatherCatV1.21B27,2013-09-22 18:27:00,
2013-09-22 19:32:00,65.1,60.5,30.12,SSE,159,6.0,10.0,85,0.00,,,0.00,WeatherCatV1.21B27,2013-09-22 18:32:00,
2013-09-22 19:37:00,65.0,60.4,30.12,SE,142,5.0,8.0,85,0.00,,,0.00,WeatherCatV1.21B27,2013-09-22 18:37:00,
2013-09-22 19:42:00,65.0,60.4,30.12,SE,124,5.0,7.0,85,0.00,,,0.00,WeatherCatV1.21B27,2013-09-22 18:42:00,
2013-09-22 19:47:00,64.9,60.3,30.12,ESE,113,1.0,5.0,85,0.00,,,0.00,WeatherCatV1.21B27,2013-09-22 18:47:00,
2013-09-22 19:52:00,64.9,60.3,30.12,NNW,342,0.0,2.0,85,0.00,,,0.00,WeatherCatV1.21B27,2013-09-22 18:52:00,
2013-09-22 19:57:00,64.9,60.3,30.12,SSE,153,2.0,6.0,85,0.00,,,0.00,WeatherCatV1.21B27,2013-09-22 18:57:00,
2013-09-22 20:02:00,64.8,60.2,30.12,SE,139,7.0,10.0,85,0.00,,,0.00,WeatherCatV1.21B27,2013-09-22 19:02:00,
2013-09-22 20:07:00,64.7,60.4,30.12,SE,131,6.0,6.0,86,0.00,,,0.00,WeatherCatV1.21B27,2013-09-22 19:07:00,
2013-09-22 20:12:00,64.6,60.3,30.12,SE,146,5.0,7.0,86,0.00,,,0.00,WeatherCatV1.21B27,2013-09-22 19:12:00,
2013-09-22 20:17:00,64.6,60.3,30.12,SE,124,5.0,7.0,86,0.00,,,0.00,WeatherCatV1.21B27,2013-09-22 19:17:00,
2013-09-22 20:22:00,64.6,60.3,30.12,SE,128,3.0,4.0,86,0.00,,,0.00,WeatherCatV1.21B27,2013-09-22 19:22:00,
2013-09-22 20:27:00,64.5,60.2,30.12,SSE,149,5.0,7.0,86,0.00,,,0.00,WeatherCatV1.21B27,2013-09-22 19:27:00,
2013-09-22 20:32:00,64.5,60.2,30.12,SSE,153,6.0,9.0,86,0.00,,,0.00,WeatherCatV1.21B27,2013-09-22 19:32:00,
2013-09-22 20:37:00,64.3,60.3,30.12,SSE,163,4.0,11.0,87,0.00,,,0.00,WeatherCatV1.21B27,2013-09-22 19:37:00,
2013-09-22 20:42:00,64.2,60.2,30.12,SSE,160,2.0,10.0,87,0.00,,,0.00,WeatherCatV1.21B27,2013-09-22 19:42:00,
2013-09-22 20:47:00,64.2,60.2,30.12,SE,144,8.0,10.0,87,0.00,,,0.00,WeatherCatV1.21B27,2013-09-22 19:47:00,
2013-09-22 20:52:00,64.1,60.2,30.12,SE,131,4.0,10.0,87,0.00,,,0.00,WeatherCatV1.21B27,2013-09-22 19:52:00,
2013-09-22 20:57:00,64.1,60.2,30.12,SSE,153,3.0,10.0,87,0.00,,,0.00,WeatherCatV1.21B27,2013-09-22 19:57:00,
2013-09-22 21:02:00,64.1,60.2,30.11,SE,128,8.0,10.0,87,0.00,,,0.00,WeatherCatV1.21B27,2013-09-22 20:02:00,
2013-09-22 21:07:00,64.1,60.2,30.11,SSE,155,9.0,13.0,87,0.00,,,0.00,WeatherCatV1.21B27,2013-09-22 20:07:00,
2013-09-22 21:12:00,64.1,60.2,30.12,South,170,11.0,13.0,87,0.00,,,0.00,WeatherCatV1.21B27,2013-09-22 20:12:00,
2013-09-22 21:17:00,64.0,60.0,30.12,SSE,155,6.0,10.0,87,0.00,,,0.00,WeatherCatV1.21B27,2013-09-22 20:17:00,
2013-09-22 21:22:00,63.9,60.0,30.12,SE,141,10.0,12.0,87,0.00,,,0.00,WeatherCatV1.21B27,2013-09-22 20:22:00,
2013-09-22 21:27:00,63.8,59.8,30.12,SSE,149,8.0,12.0,87,0.00,,,0.00,WeatherCatV1.21B27,2013-09-22 20:27:00,
2013-09-22 21:32:00,63.7,60.1,30.12,South,169,5.0,7.0,88,0.00,,,0.00,WeatherCatV1.21B27,2013-09-22 20:32:00,
2013-09-22 21:37:00,63.6,60.0,30.11,South,180,5.0,12.0,88,0.00,,,0.00,WeatherCatV1.21B27,2013-09-22 20:37:00,
2013-09-22 21:42:00,63.7,60.1,30.11,SSE,156,5.0,8.0,88,0.00,,,0.00,WeatherCatV1.21B27,2013-09-22 20:42:00,
2013-09-22 21:47:00,63.7,60.1,30.12,ESE,117,8.0,10.0,88,0.00,,,0.00,WeatherCatV1.21B27,2013-09-22 20:47:00,
2013-09-22 21:52:00,63.8,60.2,30.12,ESE,115,4.0,10.0,88,0.00,,,0.00,WeatherCatV1.21B27,2013-09-22 20:52:00,
2013-09-22 21:57:00,63.8,60.2,30.12,SSE,158,7.0,8.0,88,0.00,,,0.00,WeatherCatV1.21B27,2013-09-22 20:57:00,
2013-09-22 22:02:00,63.7,60.1,30.12,SSE,162,4.0,8.0,88,0.00,,,0.00,WeatherCatV1.21B27,2013-09-22 21:02:00,
2013-09-22 22:07:00,63.7,60.1,30.12,SSE,160,3.0,5.0,88,0.00,,,0.00,WeatherCatV1.21B27,2013-09-22 21:07:00,
2013-09-22 22:12:00,63.6,60.0,30.12,SE,130,4.0,4.0,88,0.00,,,0.00,WeatherCatV1.21B27,2013-09-22 21:12:00,
2013-09-22 22:17:00,63.5,59.9,30.12,SSE,162,1.0,4.0,88,0.00,,,0.00,WeatherCatV1.21B27,2013-09-22 21:17:00,
2013-09-22 22:22:00,63.5,59.9,30.12,ESE,118,5.0,6.0,88,0.00,,,0.00,WeatherCatV1.21B27,2013-09-22 21:22:00,
2013-09-22 22:27:00,63.5,59.9,30.12,ESE,121,4.0,7.0,88,0.00,,,0.00,WeatherCatV1.21B27,2013-09-22 21:27:00,
2013-09-22 22:32:00,63.4,59.8,30.12,SE,124,6.0,9.0,88,0.00,,,0.00,WeatherCatV1.21B27,2013-09-22 21:32:00,
2013-09-22 22:37:00,63.4,60.1,30.12,SSE,160,4.0,8.0,89,0.00,,,0.00,WeatherCatV1.21B27,2013-09-22 21:37:00,
2013-09-22 22:42:00,63.3,60.0,30.12,SE,133,2.0,7.0,89,0.00,,,0.00,WeatherCatV1.21B27,2013-09-22 21:42:00,
2013-09-22 22:47:00,63.3,59.7,30.12,South,173,3.0,7.0,88,0.00,,,0.00,WeatherCatV1.21B27,2013-09-22 21:47:00,
2013-09-22 22:52:00,63.2,59.6,30.12,SE,132,7.0,11.0,88,0.00,,,0.00,WeatherCatV1.21B27,2013-09-22 21:52:00,
2013-09-22 22:57:00,63.0,59.4,30.11,ESE,111,7.0,10.0,88,0.00,,,0.00,WeatherCatV1.21B27,2013-09-22 21:57:00,
2013-09-22 23:02:00,62.9,59.3,30.11,SE,131,5.0,10.0,88,0.00,,,0.00,WeatherCatV1.21B27,2013-09-22 22:02:00,
2013-09-22 23:07:00,62.7,59.1,30.11,SE,139,6.0,9.0,88,0.00,,,0.00,WeatherCatV1.21B27,2013-09-22 22:07:00,
2013-09-22 23:12:00,62.6,59.0,30.11,ESE,121,6.0,7.0,88,0.00,,,0.00,WeatherCatV1.21B27,2013-09-22 22:12:00,
2013-09-22 23:17:00,62.7,59.1,30.11,SE,132,6.0,9.0,88,0.00,,,0.00,WeatherCatV1.21B27,2013-09-22 22:17:00,
2013-09-22 23:22:00,62.7,59.1,30.11,ESE,117,8.0,13.0,88,0.00,,,0.00,WeatherCatV1.21B27,2013-09-22 22:22:00,
2013-09-22 23:27:00,62.7,58.8,30.11,ESE,117,10.0,13.0,87,0.00,,,0.00,WeatherCatV1.21B27,2013-09-22 22:27:00,
2013-09-22 23:32:00,62.7,58.8,30.11,SE,131,10.0,12.0,87,0.00,,,0.00,WeatherCatV1.21B27,2013-09-22 22:32:00,
2013-09-22 23:37:00,62.6,58.7,30.11,SE,131,6.0,12.0,87,0.00,,,0.00,WeatherCatV1.21B27,2013-09-22 22:37:00,
2013-09-22 23:42:00,62.5,58.9,30.11,ESE,116,4.0,11.0,88,0.00,,,0.00,WeatherCatV1.21B27,2013-09-22 22:42:00,
2013-09-22 23:47:00,62.6,59.0,30.11,SE,139,5.0,10.0,88,0.00,,,0.00,WeatherCatV1.21B27,2013-09-22 22:47:00,
2013-09-22 23:52:00,62.5,58.9,30.11,ESE,118,4.0,7.0,88,0.00,,,0.00,WeatherCatV1.21B27,2013-09-22 22:52:00,
2013-09-22 23:57:00,62.5,58.9,30.11,SE,139,5.0,8.0,88,0.00,,,0.00,WeatherCatV1.21B27,2013-09-22 22:57:00,